カタログに戻る

STARLINK-36732

運用中通信SSO
NORAD 67813·PAYLOAD·🇺🇸 United States

打ち上げ Feb 15, 2026 から Vandenberg Space Force Base

Loading…

次のパス (今後24時間)

TLE

最新Source: CelesTrak SupGP

元期: Sep 15, 2026, 04:08 UTC

1 67813C 26032S   26258.17270833 -.00046947  00000+0 -14575-2 0  2585
2 67813  97.2859  84.6940 0001692  89.2954 192.0310 15.33458573    14

AllMySatでSTARLINK-36732をリアルタイム追跡

Download on the App Store